AirNav   Phillips 66 Aviation Fuel
 
 1588 users online  

TA20 San Jacinto Methodist Hospital Heliport
Baytown, Texas, USA

GOING TO BAYTOWN?


FAA INFORMATION EFFECTIVE 14 SEPTEMBER 2017

Location

FAA Identifier: TA20
Lat/Long: 29-46-09.0600N / 094-58-43.4100W
29-46.151000N / 094-58.723500W
29.7691833 / -94.9787250
(estimated)
Elevation: 24 ft. / 7 m (estimated)
Variation: 06E (1985)
Time zone: UTC -5 (UTC -6 during Standard Time)
Zip code: 77521

Heliport Operations

Heliport use: Private use. Permission required prior to landing
Activation date: 06/1989
Control tower: no
ARTCC: HOUSTON CENTER
FSS: MONTGOMERY COUNTY FLIGHT SERVICE STATION
Attendance: UNATNDD
Wind indicator: lighted
Segmented circle: no

Heliport Communications

WX ASOS at HOU (17 nm SW): PHONE 713-847-1462

Nearby radio navigation aids

VOR radial/distance  VOR name  Freq  Var
HUBr061/17.0HOBBY VOR/DME117.1005E
MHFr311/18.0TRINITY VOR/DME113.6007E
IAHr116/22.2HUMBLE VORTAC116.6005E
VUHr343/30.5SCHOLES VOR/DME113.0006E
DASr210/30.6DAISETTA VORTAC116.9005E

 
NDB name  Hdg/Dist  Freq  Var  ID
SANJAC033/7.734705EJPA .--- .--. .-
NIXIN133/18.232605EBVP -... ...- .--.
GALVESTON328/28.620608EGLS --. .-.. ...

Heliport Services

Runway Information

Helipad H1

Dimensions: 60 x 60 ft. / 18 x 18 m
Surface: concrete
Latitude: 29-46.151000N
Longitude: 094-58.723500W
Elevation: 24.0 ft.
Traffic pattern: leftleft

Heliport Ownership and Management from official FAA records

Ownership: Privately-owned
Owner: SAN JACINTO METHODIST HOSP.
4401 GARTH ROAD
BAYTOWN, TX 77521
Phone 713-420-8765
Manager: ROD SEIDEL
4401 GARTH ROAD
BAYTOWN, TX 77521
Phone 713-420-8765

Instrument Procedures

There are no published instrument procedures at TA20.

Some nearby airports with instrument procedures:

KHPY - Baytown Airport (2 nm NE)
54T - RWJ Airpark (7 nm E)
T41 - La Porte Municipal Airport (7 nm SW)
KEFD - Ellington Airport (14 nm SW)
T00 - Chambers County Airport (16 nm E)
KHOU - William P Hobby Airport (17 nm SW)
 
Loc | Ops | Rwys | IFR | FBO | Links
Com | Nav | Svcs | Stats | Notes


 
Area around TA20 (San Jacinto Methodist Hospital Heliport)
 
Road maps at: MapQuest Bing Google
 
Aerial photo
No photo
 
Sectional chart

 
Airport distance calculator
Flying to San Jacinto Methodist Hospital Heliport? Find the distance to fly.

From to TA20

Sunrise and sunset
Times for 25-Sep-2017
 Local
(UTC-5)
 Zulu
(UTC)
Morning civil twilight06:4711:47
Sunrise07:1112:11
Sunset19:1200:12
Evening civil twilight19:3600:36

Current date and time
Zulu (UTC)  25-Sep-2017 17:29:21
Local (UTC-5)  25-Sep-2017 12:29:21
 
METAR
KEFD 
14nm SW 
251650Z 10009KT 10SM SCT030 SCT250 32/23 A2991
KHOU 
18nm SW 
251653Z 11007KT 10SM SCT032 SCT250 32/22 A2988 RMK AO2 SLP122 T03170222
KLVJ 
21nm SW 
251653Z AUTO 14008KT 10SM SCT037 32/21 A2990 RMK AO2 SLP124 T03170206
KIAH 
24nm NW 
251653Z 11010KT 10SM FEW028 SCT034 SCT250 30/23 A2989 RMK AO2 SLP122 T03000228
TAF
KEFD 
14nm SW 
251200Z 2512/2618 09006KT 9999 SCT010 BKN020 QNH2985INS BECMG 2517/2518 09006KT 9999 SCT030 QNH2973INS BECMG 2608/2609 10006KT 9999 SCT010 QNH2981INS TX31/2521Z TN24/2512Z
KHOU 
18nm SW 
251500Z 2515/2612 09005KT P6SM FEW025 FM251700 11007KT P6SM VCSH SCT030 FM252200 13008KT P6SM SCT040 BKN250 FM260500 VRB03KT P6SM SKC
NOTAMs
Click for the latest NOTAMs
NOTAMs are issued by the DoD/FAA and will open in a separate window not controlled by AirNav.

 

 
 

Would you like to see your business listed on this page?

 If your business provides an interesting product or service to pilots, flight crews, aircraft, or users of the San Jacinto Methodist Hospital Heliport, you should consider listing it here.  To start the listing process, click on the button below
 
Add a business
 

Other Pages about San Jacinto Methodist Hospital Heliport

Update a link
 
Copyright © AirNav, LLC. All rights reserved. Privacy Policy  Contact